| time (UTC) | temp F | wind direction | speed MPH | gust MPH | rain 1hr in | rain 24hr in | rain mn in | humidity % | barometer mb |
| 20260509194329 | 87 | 302 | 0.0 | 4.0 | 0.00 | 0.00 | 0.00 | 72 | 1009.3 |
| 20260509193833 | 87 | 358 | 2.0 | 4.0 | 0.00 | 0.00 | 0.00 | 71 | 1009.3 |
| 20260509193337 | 88 | 75 | 1.0 | 3.0 | 0.00 | 0.00 | 0.00 | 70 | 1009.4 |
| 20260509192825 | 88 | 317 | 1.0 | 3.0 | 0.00 | 0.00 | 0.00 | 68 | 1009.4 |
| 20260509192330 | 89 | 73 | 1.0 | 3.0 | 0.00 | 0.00 | 0.00 | 69 | 1009.4 |
| 20260509191833 | 88 | 226 | 1.0 | 3.0 | 0.00 | 0.00 | 0.00 | 69 | 1009.6 |
| 20260509191337 | 88 | 127 | 1.0 | 3.0 | 0.00 | 0.00 | 0.00 | 69 | 1009.6 |
| 20260509190841 | 87 | 304 | 1.0 | 6.0 | 0.00 | 0.00 | 0.00 | 69 | 1009.6 |
| 20260509190325 | 87 | 233 | 3.0 | 6.0 | 0.00 | 0.00 | 0.00 | 69 | 1009.6 |
| 20260509185848 | 87 | 42 | 0.0 | 4.0 | 0.00 | 0.00 | 0.00 | 71 | 1009.6 |
| 20260509185332 | 86 | 215 | 1.0 | 4.0 | 0.00 | 0.00 | 0.00 | 71 | 1009.6 |
| 20260509184838 | 86 | 298 | 0.0 | 6.0 | 0.00 | 0.00 | 0.00 | 70 | 1010.0 |
| 20260509184342 | 86 | 203 | 3.0 | 6.0 | 0.00 | 0.00 | 0.00 | 69 | 1010.0 |
| 20260509183826 | 86 | 310 | 2.0 | 6.0 | 0.00 | 0.00 | 0.00 | 70 | 1010.0 |
| 20260509183331 | 86 | 241 | 3.0 | 6.0 | 0.00 | 0.00 | 0.00 | 70 | 1010.1 |
| 20260509182839 | 87 | 248 | 2.0 | 5.0 | 0.00 | 0.00 | 0.00 | 71 | 1010.1 |
| 20260509182403 | 87 | 262 | 2.0 | 5.0 | 0.00 | 0.00 | 0.00 | 71 | 1010.1 |
| 20260509181846 | 86 | 164 | 3.0 | 6.0 | 0.00 | 0.00 | 0.00 | 71 | 1010.4 |
| 20260509181352 | 86 | 188 | 1.0 | 7.0 | 0.00 | 0.00 | 0.00 | 72 | 1010.4 |
| 20260509180833 | 85 | 217 | 4.0 | 7.0 | 0.00 | 0.00 | 0.00 | 74 | 1010.4 |
| 20260509180340 | 85 | 257 | 3.0 | 6.0 | 0.00 | 0.00 | 0.00 | 74 | 1010.6 |
| 20260509175822 | 85 | 172 | 1.0 | 6.0 | 0.00 | 0.00 | 0.00 | 73 | 1010.6 |
| 20260509175347 | 84 | 155 | 4.0 | 6.0 | 0.00 | 0.00 | 0.00 | 73 | 1010.6 |
| 20260509174832 | 84 | 161 | 3.0 | 11.0 | 0.00 | 0.00 | 0.00 | 75 | 1010.6 |
| 20260509174357 | 84 | 158 | 5.0 | 11.0 | 0.00 | 0.00 | 0.00 | 76 | 1010.6 |
| 20260509173841 | 84 | 196 | 6.0 | 10.0 | 0.00 | 0.00 | 0.00 | 76 | 1010.6 |
| 20260509173324 | 84 | 146 | 6.0 | 13.0 | 0.00 | 0.00 | 0.00 | 77 | 1010.7 |
| 20260509172851 | 85 | 186 | 5.0 | 13.0 | 0.00 | 0.00 | 0.00 | 76 | 1010.7 |
| 20260509172337 | 85 | 129 | 5.0 | 11.0 | 0.00 | 0.00 | 0.00 | 78 | 1010.7 |
| 20260509171823 | 83 | 150 | 6.0 | 11.0 | 0.00 | 0.00 | 0.00 | 79 | 1010.5 |
| 20260509171331 | 83 | 179 | 6.0 | 11.0 | 0.00 | 0.00 | 0.00 | 81 | 1010.5 |
| 20260509170835 | 82 | 198 | 6.0 | 11.0 | 0.00 | 0.00 | 0.00 | 81 | 1010.5 |
| 20260509170320 | 82 | 210 | 4.0 | 10.0 | 0.00 | 0.00 | 0.00 | 82 | 1010.3 |
| 20260509165825 | 81 | 146 | 5.0 | 9.0 | 0.00 | 0.00 | 0.00 | 84 | 1010.3 |
| 20260509165349 | 81 | 122 | 5.0 | 7.0 | 0.00 | 0.00 | 0.00 | 84 | 1010.3 |
| 20260509164831 | 80 | 168 | 4.0 | 7.0 | 0.00 | 0.00 | 0.00 | 85 | 1010.7 |
| 20260509164339 | 80 | 190 | 2.0 | 5.0 | 0.00 | 0.00 | 0.00 | 87 | 1010.7 |
| 20260509163846 | 79 | 191 | 2.0 | 5.0 | 0.00 | 0.00 | 0.00 | 87 | 1010.7 |
| 20260509163327 | 79 | 192 | 2.0 | 4.0 | 0.00 | 0.00 | 0.00 | 88 | 1011.0 |
| 20260509162832 | 79 | 159 | 1.0 | 4.0 | 0.00 | 0.00 | 0.00 | 88 | 1011.0 |
| 20260509162339 | 79 | 188 | 2.0 | 4.0 | 0.00 | 0.00 | 0.00 | 88 | 1011.0 |
| 20260509161842 | 79 | 303 | 0.0 | 2.0 | 0.00 | 0.00 | 0.00 | 89 | 1011.1 |
| 20260509161345 | 78 | 303 | 0.0 | 2.0 | 0.00 | 0.00 | 0.00 | 89 | 1011.1 |
| 20260509160827 | 78 | 303 | 0.0 | 2.0 | 0.00 | 0.00 | 0.00 | 90 | 1011.1 |
| 20260509160333 | 78 | 303 | 0.0 | 2.0 | 0.00 | 0.00 | 0.00 | 90 | 1011.1 |
| 20260509155840 | 78 | 303 | 0.0 | 2.0 | 0.00 | 0.00 | 0.00 | 90 | 1011.1 |
| 20260509155324 | 78 | 303 | 1.0 | 3.0 | 0.00 | 0.00 | 0.00 | 90 | 1011.1 |
| 20260509154828 | 78 | 299 | 1.0 | 3.0 | 0.00 | 0.00 | 0.00 | 90 | 1011.2 |
| 20260509154332 | 78 | 47 | 0.0 | 0.0 | 0.00 | 0.00 | 0.00 | 90 | 1011.2 |
| 20260509153858 | 78 | 296 | 0.0 | 0.0 | 0.00 | 0.00 | 0.00 | 90 | 1011.2 |
| 20260509153341 | 78 | 296 | 0.0 | 0.0 | 0.00 | 0.00 | 0.00 | 89 | 1011.2 |
| 20260509152825 | 78 | 317 | 0.0 | 2.0 | 0.00 | 0.00 | 0.00 | 90 | 1011.2 |
| 20260509152351 | 78 | 174 | 0.0 | 2.0 | 0.00 | 0.00 | 0.00 | 91 | 1011.2 |
| 20260509151855 | 78 | 174 | 0.0 | 0.0 | 0.00 | 0.00 | 0.00 | 92 | 1011.0 |
| 20260509151339 | 77 | 235 | 0.0 | 0.0 | 0.00 | 0.00 | 0.00 | 92 | 1011.0 |
| 20260509150843 | 77 | 235 | 0.0 | 0.0 | 0.00 | 0.00 | 0.00 | 93 | 1011.0 |
| 20260509150328 | 77 | 235 | 0.0 | 0.0 | 0.00 | 0.00 | 0.00 | 93 | 1010.7 |
| 20260509145831 | 77 | 235 | 0.0 | 0.0 | 0.00 | 0.00 | 0.00 | 93 | 1010.7 |
| 20260509145336 | 77 | 235 | 0.0 | 0.0 | 0.00 | 0.00 | 0.00 | 93 | 1010.7 |
| 20260509144823 | 77 | 235 | 0.0 | 0.0 | 0.00 | 0.00 | 0.00 | 94 | 1010.4 |
| 20260509144328 | 76 | 235 | 0.0 | 0.0 | 0.00 | 0.00 | 0.00 | 94 | 1010.3 |
| 20260509143836 | 76 | 141 | 0.0 | 0.0 | 0.00 | 0.00 | 0.00 | 95 | 1010.3 |
| 20260509143340 | 76 | 141 | 0.0 | 0.0 | 0.00 | 0.00 | 0.00 | 95 | 1010.6 |
| 20260509142822 | 76 | 142 | 0.0 | 0.0 | 0.00 | 0.00 | 0.00 | 95 | 1010.6 |
| 20260509142327 | 76 | 142 | 0.0 | 0.0 | 0.00 | 0.00 | 0.00 | 95 | 1010.6 |
| 20260509141832 | 76 | 142 | 0.0 | 1.0 | 0.00 | 0.00 | 0.00 | 96 | 1010.1 |
| 20260509141336 | 76 | 142 | 0.0 | 2.0 | 0.00 | 0.00 | 0.00 | 96 | 1010.1 |
| 20260509140840 | 76 | 142 | 1.0 | 3.0 | 0.00 | 0.00 | 0.00 | 96 | 1010.1 |
| 20260509140325 | 75 | 142 | 3.0 | 3.0 | 0.00 | 0.00 | 0.00 | 96 | 1010.3 |
| 20260509135829 | 75 | 191 | 0.0 | 3.0 | 0.00 | 0.00 | 0.00 | 96 | 1010.3 |
| 20260509135353 | 75 | 191 | 2.0 | 3.0 | 0.00 | 0.00 | 0.00 | 97 | 1010.3 |
| 20260509134835 | 75 | 137 | 0.0 | 0.0 | 0.00 | 0.00 | 0.00 | 97 | 1010.5 |
| 20260509134327 | 75 | 137 | 0.0 | 1.0 | 0.00 | 0.00 | 0.00 | 97 | 1010.5 |
| 20260509133832 | 75 | 137 | 0.0 | 4.0 | 0.00 | 0.00 | 0.00 | 97 | 1010.5 |
| 20260509133336 | 75 | 137 | 1.0 | 5.0 | 0.00 | 0.00 | 0.00 | 97 | 1011.2 |
| 20260509132845 | 75 | 144 | 4.0 | 5.0 | 0.00 | 0.00 | 0.00 | 97 | 1011.2 |
| 20260509132328 | 75 | 178 | 2.0 | 3.0 | 0.00 | 0.00 | 0.00 | 98 | 1011.2 |
| 20260509131852 | 75 | 178 | 0.0 | 1.0 | 0.00 | 0.00 | 0.00 | 98 | 1011.2 |
| 20260509131355 | 75 | 178 | 0.0 | 1.0 | 0.00 | 0.00 | 0.00 | 98 | 1011.2 |
| 20260509130840 | 75 | 178 | 0.0 | 1.0 | 0.00 | 0.00 | 0.00 | 98 | 1011.2 |
| 20260509130325 | 74 | 178 | 0.0 | 2.0 | 0.00 | 0.00 | 0.00 | 98 | 1010.8 |
| 20260509125827 | 74 | 178 | 0.0 | 3.0 | 0.00 | 0.00 | 0.00 | 98 | 1010.8 |
| 20260509125332 | 74 | 178 | 0.0 | 3.0 | 0.00 | 0.00 | 0.00 | 97 | 1010.8 |
| 20260509124855 | 74 | 178 | 2.0 | 3.0 | 0.00 | 0.00 | 0.00 | 98 | 1010.7 |
| 20260509124339 | 74 | 178 | 0.0 | 0.0 | 0.00 | 0.00 | 0.00 | 98 | 1010.7 |
| 20260509123844 | 74 | 178 | 0.0 | 0.0 | 0.00 | 0.00 | 0.00 | 98 | 1010.7 |
| 20260509123332 | 74 | 178 | 0.0 | 3.0 | 0.00 | 0.00 | 0.00 | 98 | 1010.6 |
| 20260509122836 | 74 | 178 | 1.0 | 3.0 | 0.00 | 0.00 | 0.00 | 98 | 1010.6 |
| 20260509122340 | 74 | 183 | 1.0 | 3.0 | 0.00 | 0.00 | 0.00 | 98 | 1010.6 |
| 20260509121824 | 73 | 183 | 2.0 | 3.0 | 0.00 | 0.00 | 0.00 | 97 | 1010.3 |
| 20260509121328 | 73 | 183 | 0.0 | 4.0 | 0.00 | 0.00 | 0.00 | 97 | 1010.3 |
| 20260509120832 | 73 | 183 | 2.0 | 4.0 | 0.00 | 0.00 | 0.00 | 97 | 1010.3 |
| 20260509120335 | 73 | 175 | 1.0 | 3.0 | 0.00 | 0.00 | 0.00 | 97 | 1010.2 |
| 20260509115839 | 73 | 129 | 0.0 | 0.0 | 0.00 | 0.00 | 0.00 | 97 | 1010.2 |
| 20260509115322 | 73 | 129 | 0.0 | 0.0 | 0.00 | 0.00 | 0.00 | 97 | 1010.2 |
| 20260509114828 | 73 | 129 | 0.0 | 0.0 | 0.00 | 0.00 | 0.00 | 97 | 1010.4 |
| 20260509114354 | 73 | 129 | 0.0 | 0.0 | 0.00 | 0.00 | 0.00 | 97 | 1010.4 |
| 20260509113822 | 73 | 129 | 0.0 | 0.0 | 0.00 | 0.00 | 0.00 | 97 | 1010.4 |
| 20260509113327 | 73 | 129 | 0.0 | 0.0 | 0.00 | 0.00 | 0.00 | 97 | 1010.7 |
| 20260509112832 | 73 | 129 | 0.0 | 0.0 | 0.00 | 0.00 | 0.00 | 97 | 1010.7 |
| 20260509112335 | 73 | 129 | 0.0 | 0.0 | 0.00 | 0.00 | 0.00 | 97 | 1010.7 |
| 20260509111820 | 73 | 129 | 0.0 | 0.0 | 0.00 | 0.00 | 0.00 | 97 | 1010.6 |
| 20260509111348 | 73 | 129 | 0.0 | 0.0 | 0.00 | 0.00 | 0.00 | 97 | 1010.6 |
| 20260509110832 | 73 | 129 | 0.0 | 0.0 | 0.00 | 0.00 | 0.00 | 97 | 1010.6 |
| 20260509110357 | 73 | 129 | 0.0 | 1.0 | 0.00 | 0.00 | 0.00 | 97 | 1010.6 |
| 20260509105839 | 73 | 129 | 0.0 | 1.0 | 0.00 | 0.00 | 0.00 | 97 | 1010.6 |
| 20260509105324 | 73 | 129 | 0.0 | 0.0 | 0.00 | 0.00 | 0.00 | 97 | 1010.6 |
| 20260509104831 | 73 | 129 | 0.0 | 0.0 | 0.00 | 0.00 | 0.00 | 97 | 1010.2 |
| 20260509104335 | 73 | 129 | 0.0 | 0.0 | 0.00 | 0.00 | 0.00 | 97 | 1010.2 |
| 20260509103839 | 73 | 129 | 0.0 | 0.0 | 0.00 | 0.00 | 0.00 | 97 | 1010.2 |
| 20260509103327 | 73 | 129 | 0.0 | 0.0 | 0.00 | 0.00 | 0.00 | 97 | 1010.1 |
| 20260509102831 | 73 | 129 | 0.0 | 0.0 | 0.00 | 0.00 | 0.00 | 97 | 1010.1 |
| 20260509102335 | 73 | 129 | 0.0 | 0.0 | 0.00 | 0.00 | 0.00 | 97 | 1010.1 |
| 20260509101838 | 73 | 129 | 0.0 | 0.0 | 0.00 | 0.00 | 0.00 | 97 | 1009.5 |
| 20260509101322 | 73 | 129 | 0.0 | 0.0 | 0.00 | 0.00 | 0.00 | 97 | 1009.5 |
| 20260509100827 | 74 | 129 | 0.0 | 3.0 | 0.00 | 0.00 | 0.00 | 96 | 1009.5 |
| 20260509100332 | 74 | 129 | 2.0 | 3.0 | 0.00 | 0.00 | 0.00 | 97 | 1009.4 |
| 20260509095835 | 74 | 129 | 2.0 | 3.0 | 0.00 | 0.00 | 0.00 | 97 | 1009.4 |
| 20260509095337 | 74 | 129 | 2.0 | 3.0 | 0.00 | 0.00 | 0.00 | 97 | 1009.4 |
| 20260509094823 | 74 | 129 | 0.0 | 0.0 | 0.00 | 0.00 | 0.00 | 96 | 1009.6 |
| 20260509094327 | 74 | 129 | 0.0 | 0.0 | 0.00 | 0.00 | 0.00 | 96 | 1009.6 |
| 20260509093831 | 74 | 129 | 0.0 | 0.0 | 0.00 | 0.00 | 0.00 | 96 | 1009.6 |
| 20260509093356 | 74 | 129 | 0.0 | 0.0 | 0.00 | 0.00 | 0.00 | 97 | 1010.1 |
| 20260509092845 | 74 | 129 | 0.0 | 0.0 | 0.00 | 0.00 | 0.00 | 97 | 1010.1 |
| 20260509092329 | 74 | 129 | 0.0 | 0.0 | 0.00 | 0.00 | 0.00 | 96 | 1010.1 |
| 20260509091834 | 74 | 129 | 0.0 | 0.0 | 0.00 | 0.00 | 0.00 | 97 | 1010.1 |
| 20260509091339 | 74 | 129 | 0.0 | 0.0 | 0.00 | 0.00 | 0.00 | 96 | 1010.1 |
| 20260509090823 | 74 | 129 | 0.0 | 0.0 | 0.00 | 0.00 | 0.00 | 96 | 1010.1 |
| 20260509090328 | 74 | 129 | 0.0 | 0.0 | 0.00 | 0.00 | 0.00 | 96 | 1010.1 |
| 20260509085830 | 74 | 129 | 0.0 | 0.0 | 0.00 | 0.00 | 0.00 | 96 | 1010.1 |
| 20260509085357 | 74 | 129 | 0.0 | 0.0 | 0.00 | 0.00 | 0.00 | 96 | 1010.1 |
| 20260509084823 | 74 | 129 | 0.0 | 0.0 | 0.00 | 0.00 | 0.00 | 96 | 1010.1 |
| 20260509084327 | 74 | 129 | 0.0 | 0.0 | 0.00 | 0.00 | 0.00 | 96 | 1010.1 |
| 20260509083831 | 74 | 129 | 0.0 | 1.0 | 0.00 | 0.00 | 0.00 | 96 | 1010.1 |
| 20260509083323 | 74 | 129 | 0.0 | 2.0 | 0.00 | 0.00 | 0.00 | 96 | 1010.0 |
| 20260509082826 | 74 | 129 | 1.0 | 2.0 | 0.00 | 0.00 | 0.00 | 96 | 1010.0 |
| 20260509082355 | 74 | 129 | 0.0 | 2.0 | 0.00 | 0.00 | 0.00 | 96 | 1010.0 |
| 20260509081839 | 74 | 129 | 0.0 | 2.0 | 0.00 | 0.00 | 0.00 | 96 | 1009.7 |
| 20260509081326 | 74 | 129 | 1.0 | 2.0 | 0.00 | 0.00 | 0.00 | 96 | 1009.7 |
| 20260509080829 | 74 | 129 | 0.0 | 3.0 | 0.00 | 0.00 | 0.00 | 96 | 1009.7 |
| 20260509080353 | 74 | 129 | 1.0 | 4.0 | 0.00 | 0.00 | 0.00 | 96 | 1010.0 |
| 20260509075856 | 74 | 129 | 2.0 | 4.0 | 0.00 | 0.00 | 0.00 | 96 | 1010.0 |
| 20260509075340 | 74 | 129 | 0.0 | 2.0 | 0.00 | 0.00 | 0.00 | 96 | 1010.0 |
| 20260509074846 | 74 | 129 | 0.0 | 2.0 | 0.00 | 0.00 | 0.00 | 96 | 1010.1 |
| 20260509074350 | 74 | 129 | 1.0 | 2.0 | 0.00 | 0.00 | 0.00 | 96 | 1010.1 |
| 20260509073856 | 74 | 129 | 1.0 | 3.0 | 0.00 | 0.00 | 0.00 | 96 | 1010.1 |
| 20260509073340 | 74 | 129 | 0.0 | 3.0 | 0.00 | 0.00 | 0.00 | 96 | 1010.1 |
| 20260509072823 | 74 | 129 | 1.0 | 1.0 | 0.00 | 0.00 | 0.00 | 96 | 1010.1 |
| 20260509072325 | 74 | 129 | 0.0 | 4.0 | 0.00 | 0.00 | 0.00 | 96 | 1010.1 |
| 20260509071831 | 74 | 129 | 1.0 | 5.0 | 0.00 | 0.00 | 0.00 | 96 | 1010.1 |
| 20260509071336 | 74 | 137 | 1.0 | 5.0 | 0.00 | 0.00 | 0.00 | 96 | 1010.1 |
| 20260509070823 | 74 | 130 | 2.0 | 4.0 | 0.00 | 0.00 | 0.00 | 96 | 1010.1 |
| 20260509070326 | 74 | 120 | 2.0 | 3.0 | 0.00 | 0.00 | 0.00 | 96 | 1010.1 |
| 20260509065830 | 74 | 120 | 1.0 | 3.0 | 0.00 | 0.00 | 0.00 | 96 | 1010.1 |
| 20260509065338 | 74 | 120 | 0.0 | 4.0 | 0.00 | 0.00 | 0.00 | 96 | 1010.1 |
| 20260509064822 | 74 | 120 | 2.0 | 4.0 | 0.00 | 0.00 | 0.00 | 96 | 1010.2 |
| 20260509064325 | 74 | 134 | 2.0 | 4.0 | 0.00 | 0.00 | 0.00 | 96 | 1010.2 |
| 20260509063830 | 74 | 124 | 0.0 | 0.0 | 0.00 | 0.00 | 0.00 | 96 | 1010.2 |
| 20260509063337 | 74 | 124 | 0.0 | 0.0 | 0.00 | 0.00 | 0.00 | 96 | 1010.5 |
| 20260509062843 | 74 | 124 | 0.0 | 0.0 | 0.00 | 0.00 | 0.00 | 96 | 1010.5 |
| 20260509062325 | 74 | 124 | 0.0 | 0.0 | 0.00 | 0.00 | 0.00 | 96 | 1010.5 |
| 20260509061830 | 74 | 124 | 0.0 | 0.0 | 0.00 | 0.00 | 0.00 | 96 | 1010.6 |
| 20260509061321 | 74 | 124 | 0.0 | 0.0 | 0.00 | 0.00 | 0.00 | 96 | 1010.6 |
| 20260509060825 | 74 | 124 | 0.0 | 0.0 | 0.00 | 0.00 | 0.00 | 96 | 1010.6 |
| 20260509060332 | 74 | 124 | 0.0 | 3.0 | 0.00 | 0.00 | 0.00 | 96 | 1010.6 |
| 20260509055834 | 74 | 124 | 0.0 | 3.0 | 0.00 | 0.00 | 0.00 | 96 | 1010.6 |
| 20260509055321 | 74 | 124 | 0.0 | 3.0 | 0.00 | 0.00 | 0.00 | 96 | 1010.6 |
| 20260509054846 | 74 | 124 | 1.0 | 3.0 | 0.00 | 0.00 | 0.00 | 96 | 1010.7 |
| 20260509054329 | 74 | 124 | 0.0 | 4.0 | 0.00 | 0.00 | 0.00 | 96 | 1010.7 |
| 20260509053834 | 74 | 124 | 3.0 | 4.0 | 0.00 | 0.00 | 0.00 | 96 | 1010.7 |
| 20260509053340 | 74 | 130 | 2.0 | 6.0 | 0.00 | 0.00 | 0.00 | 96 | 1010.7 |
| 20260509052823 | 73 | 119 | 3.0 | 6.0 | 0.00 | 0.00 | 0.00 | 96 | 1010.7 |
| 20260509052351 | 73 | 121 | 4.0 | 6.0 | 0.00 | 0.00 | 0.00 | 96 | 1010.7 |
| 20260509051856 | 73 | 123 | 4.0 | 5.0 | 0.00 | 0.00 | 0.00 | 96 | 1010.7 |
| 20260509051319 | 73 | 135 | 1.0 | 6.0 | 0.00 | 0.00 | 0.00 | 96 | 1010.7 |
| 20260509050826 | 73 | 146 | 4.0 | 6.0 | 0.00 | 0.00 | 0.00 | 96 | 1010.7 |
| 20260509050328 | 73 | 118 | 4.0 | 5.0 | 0.00 | 0.00 | 0.00 | 96 | 1010.7 |
| 20260509045850 | 73 | 126 | 3.0 | 5.0 | 0.00 | 0.00 | 0.00 | 96 | 1010.7 |
| 20260509045354 | 73 | 134 | 2.0 | 5.0 | 0.00 | 0.00 | 0.00 | 96 | 1010.7 |
| 20260509044824 | 73 | 132 | 3.0 | 7.0 | 0.00 | 0.00 | 0.00 | 96 | 1010.7 |
| 20260509044328 | 73 | 122 | 4.0 | 7.0 | 0.00 | 0.00 | 0.00 | 96 | 1010.7 |
| 20260509043835 | 73 | 125 | 4.0 | 5.0 | 0.00 | 0.00 | 0.00 | 96 | 1010.7 |
| 20260509043343 | 73 | 121 | 1.0 | 5.0 | 0.00 | 0.00 | 0.00 | 96 | 1010.9 |
| 20260509042845 | 73 | 121 | 1.0 | 5.0 | 0.00 | 0.00 | 0.00 | 96 | 1010.9 |
| 20260509042330 | 73 | 124 | 1.0 | 5.0 | 0.00 | 0.00 | 0.00 | 96 | 1010.9 |
| 20260509041832 | 73 | 131 | 1.0 | 5.0 | 0.00 | 0.00 | 0.00 | 96 | 1010.7 |
| 20260509041319 | 73 | 133 | 0.0 | 4.0 | 0.00 | 0.00 | 0.00 | 96 | 1010.7 |
| 20260509040826 | 73 | 125 | 0.0 | 4.0 | 0.00 | 0.00 | 0.00 | 96 | 1010.7 |
| 20260509040331 | 73 | 127 | 3.0 | 4.0 | 0.00 | 0.00 | 0.00 | 96 | 1010.3 |
| 20260509035833 | 73 | 26 | 1.0 | 3.0 | 0.00 | 0.00 | 0.00 | 96 | 1010.3 |
| 20260509035337 | 73 | 106 | 0.0 | 3.0 | 0.00 | 0.00 | 0.00 | 96 | 1010.3 |
| 20260509034824 | 73 | 106 | 0.0 | 5.0 | 0.00 | 0.00 | 0.00 | 96 | 1010.2 |
| 20260509034331 | 73 | 130 | 1.0 | 7.0 | 0.00 | 0.00 | 0.00 | 96 | 1010.2 |
| 20260509033821 | 73 | 127 | 3.0 | 7.0 | 0.00 | 0.00 | 0.00 | 95 | 1010.2 |
| 20260509033325 | 73 | 94 | 2.0 | 5.0 | 0.00 | 0.00 | 0.00 | 96 | 1010.3 |
| 20260509032827 | 73 | 132 | 2.0 | 3.0 | 0.00 | 0.00 | 0.00 | 95 | 1010.3 |
| 20260509032332 | 73 | 120 | 1.0 | 5.0 | 0.00 | 0.00 | 0.00 | 95 | 1010.3 |
| 20260509031859 | 73 | 132 | 1.0 | 5.0 | 0.00 | 0.00 | 0.00 | 95 | 1010.2 |
| 20260509031322 | 73 | 80 | 2.0 | 6.0 | 0.00 | 0.00 | 0.00 | 95 | 1010.2 |
| 20260509030848 | 73 | 135 | 3.0 | 5.0 | 0.00 | 0.00 | 0.00 | 95 | 1010.2 |
| 20260509030352 | 73 | 127 | 1.0 | 4.0 | 0.00 | 0.00 | 0.00 | 95 | 1010.1 |
| 20260509025834 | 73 | 125 | 2.0 | 5.0 | 0.00 | 0.00 | 0.00 | 95 | 1010.1 |
| 20260509025338 | 73 | 40 | 1.0 | 5.0 | 0.00 | 0.00 | 0.00 | 95 | 1010.1 |
| 20260509024821 | 73 | 73 | 1.0 | 4.0 | 0.00 | 0.00 | 0.00 | 95 | 1009.8 |
| 20260509024325 | 73 | 121 | 0.0 | 4.0 | 0.00 | 0.00 | 0.00 | 94 | 1009.8 |
| 20260509023829 | 73 | 121 | 1.0 | 4.0 | 0.00 | 0.00 | 0.00 | 94 | 1009.8 |
| 20260509023334 | 73 | 89 | 1.0 | 4.0 | 0.00 | 0.00 | 0.00 | 94 | 1010.1 |
| 20260509022822 | 73 | 64 | 1.0 | 4.0 | 0.00 | 0.00 | 0.00 | 94 | 1010.1 |
| 20260509022330 | 73 | 109 | 2.0 | 4.0 | 0.00 | 0.00 | 0.00 | 94 | 1010.1 |
| 20260509021834 | 73 | 138 | 0.0 | 3.0 | 0.00 | 0.00 | 0.00 | 94 | 1009.6 |
| 20260509021359 | 73 | 21 | 1.0 | 6.0 | 0.00 | 0.00 | 0.00 | 94 | 1009.6 |
| 20260509020822 | 73 | 115 | 3.0 | 6.0 | 0.00 | 0.00 | 0.00 | 94 | 1009.6 |
| 20260509020326 | 73 | 100 | 1.0 | 5.0 | 0.00 | 0.00 | 0.00 | 94 | 1009.6 |
| 20260509015833 | 73 | 101 | 1.0 | 5.0 | 0.00 | 0.00 | 0.00 | 94 | 1009.6 |
| 20260509015336 | 73 | 135 | 0.0 | 5.0 | 0.00 | 0.00 | 0.00 | 94 | 1009.6 |
| 20260509014844 | 73 | 68 | 1.0 | 5.0 | 0.00 | 0.00 | 0.00 | 94 | 1009.6 |
| 20260509014327 | 73 | 44 | 2.0 | 4.0 | 0.00 | 0.00 | 0.00 | 94 | 1009.6 |
| 20260509013834 | 73 | 125 | 2.0 | 4.0 | 0.00 | 0.00 | 0.00 | 94 | 1009.6 |
| 20260509013401 | 73 | 84 | 2.0 | 4.0 | 0.00 | 0.00 | 0.00 | 94 | 1009.6 |
| 20260509012828 | 73 | 66 | 1.0 | 3.0 | 0.00 | 0.00 | 0.00 | 94 | 1009.6 |
| 20260509012333 | 73 | 82 | 2.0 | 3.0 | 0.00 | 0.00 | 0.00 | 94 | 1009.6 |
| 20260509011840 | 73 | 47 | 1.0 | 4.0 | 0.00 | 0.00 | 0.00 | 94 | 1009.6 |
| 20260509011323 | 73 | 73 | 1.0 | 6.0 | 0.00 | 0.00 | 0.00 | 94 | 1009.6 |
| 20260509010846 | 73 | 92 | 3.0 | 6.0 | 0.00 | 0.00 | 0.00 | 94 | 1009.6 |
| 20260509010352 | 73 | 113 | 2.0 | 7.0 | 0.00 | 0.00 | 0.00 | 94 | 1009.5 |
| 20260509005834 | 73 | 118 | 2.0 | 7.0 | 0.00 | 0.00 | 0.00 | 94 | 1009.5 |
| 20260509005454 | 73 | 143 | 3.0 | 7.0 | 0.00 | 0.00 | 0.00 | 94 | 1009.5 |
| 20260509004844 | 73 | 127 | 1.0 | 6.0 | 0.00 | 0.00 | 0.00 | 93 | 1009.4 |
| 20260509004327 | 73 | 136 | 1.0 | 5.0 | 0.00 | 0.00 | 0.00 | 93 | 1009.4 |
| 20260509003832 | 74 | 120 | 1.0 | 5.0 | 0.00 | 0.00 | 0.00 | 93 | 1009.4 |
| 20260509003336 | 74 | 61 | 2.0 | 5.0 | 0.00 | 0.00 | 0.00 | 93 | 1009.4 |
| 20260509002841 | 74 | 51 | 2.0 | 4.0 | 0.00 | 0.00 | 0.00 | 93 | 1009.4 |
| 20260509002323 | 74 | 113 | 1.0 | 6.0 | 0.00 | 0.00 | 0.00 | 93 | 1009.4 |
| 20260509001831 | 74 | 50 | 1.0 | 6.0 | 0.00 | 0.00 | 0.00 | 92 | 1009.6 |
| 20260509001335 | 74 | 89 | 1.0 | 6.0 | 0.00 | 0.00 | 0.00 | 92 | 1009.6 |
| 20260509000822 | 74 | 125 | 2.0 | 6.0 | 0.00 | 0.00 | 0.00 | 92 | 1009.6 |
| 20260509000350 | 74 | 118 | 3.0 | 5.0 | 0.00 | 0.00 | 0.00 | 92 | 1009.6 |
| 20260508235832 | 74 | 90 | 2.0 | 5.0 | 0.00 | 0.00 | 0.00 | 92 | 1009.6 |
| 20260508235356 | 74 | 44 | 2.0 | 5.0 | 0.00 | 0.00 | 0.00 | 92 | 1009.6 |
| 20260508234840 | 74 | 74 | 2.0 | 5.0 | 0.00 | 0.00 | 0.00 | 92 | 1009.7 |
| 20260508234324 | 74 | 129 | 2.0 | 5.0 | 0.00 | 0.00 | 0.00 | 91 | 1009.7 |
| 20260508233832 | 74 | 70 | 1.0 | 9.0 | 0.00 | 0.00 | 0.00 | 91 | 1009.7 |
| 20260508233336 | 74 | 116 | 2.0 | 9.0 | 0.00 | 0.00 | 0.00 | 91 | 1009.6 |
| 20260508232900 | 74 | 75 | 2.0 | 7.0 | 0.00 | 0.00 | 0.00 | 91 | 1009.6 |
| 20260508232401 | 74 | 135 | 3.0 | 7.0 | 0.00 | 0.00 | 0.00 | 91 | 1009.6 |
| 20260508231826 | 74 | 139 | 1.0 | 5.0 | 0.00 | 0.00 | 0.00 | 91 | 1009.7 |
| 20260508231349 | 74 | 102 | 1.0 | 6.0 | 0.00 | 0.00 | 0.00 | 91 | 1009.7 |
| 20260508230852 | 74 | 81 | 3.0 | 6.0 | 0.00 | 0.00 | 0.00 | 91 | 1009.7 |
| 20260508230355 | 74 | 161 | 1.0 | 5.0 | 0.00 | 0.00 | 0.00 | 91 | 1009.6 |
| 20260508225836 | 74 | 107 | 2.0 | 5.0 | 0.00 | 0.00 | 0.00 | 90 | 1009.6 |
| 20260508225400 | 74 | 72 | 0.0 | 4.0 | 0.00 | 0.00 | 0.00 | 90 | 1009.6 |
| 20260508224829 | 75 | 108 | 2.0 | 5.0 | 0.00 | 0.00 | 0.00 | 90 | 1009.6 |
| 20260508224334 | 75 | 128 | 3.0 | 5.0 | 0.00 | 0.00 | 0.00 | 90 | 1009.6 |
| 20260508223821 | 75 | 134 | 2.0 | 5.0 | 0.00 | 0.00 | 0.00 | 89 | 1009.6 |
| 20260508223329 | 75 | 84 | 2.0 | 5.0 | 0.00 | 0.00 | 0.00 | 88 | 1009.6 |
| 20260508222836 | 76 | 69 | 3.0 | 5.0 | 0.00 | 0.00 | 0.00 | 88 | 1009.6 |
| 20260508222343 | 76 | 99 | 2.0 | 4.0 | 0.00 | 0.00 | 0.00 | 89 | 1009.6 |
| 20260508221847 | 76 | 100 | 1.0 | 4.0 | 0.00 | 0.00 | 0.00 | 89 | 1009.7 |
| 20260508221331 | 75 | 85 | 2.0 | 4.0 | 0.00 | 0.00 | 0.00 | 89 | 1009.7 |
| 20260508220855 | 75 | 82 | 2.0 | 7.0 | 0.00 | 0.00 | 0.00 | 89 | 1009.7 |
| 20260508220358 | 75 | 98 | 2.0 | 7.0 | 0.00 | 0.00 | 0.00 | 89 | 1009.8 |
| 20260508215839 | 75 | 109 | 5.0 | 7.0 | 0.00 | 0.00 | 0.00 | 88 | 1009.8 |
| 20260508215342 | 75 | 113 | 3.0 | 4.0 | 0.00 | 0.00 | 0.00 | 89 | 1009.8 |
| 20260508214826 | 75 | 138 | 1.0 | 6.0 | 0.00 | 0.00 | 0.00 | 89 | 1009.8 |
| 20260508214329 | 75 | 74 | 0.0 | 6.0 | 0.00 | 0.00 | 0.00 | 89 | 1009.8 |
| 20260508213854 | 75 | 56 | 1.0 | 5.0 | 0.00 | 0.00 | 0.00 | 89 | 1009.8 |
| 20260508213336 | 75 | 78 | 2.0 | 5.0 | 0.00 | 0.00 | 0.00 | 89 | 1010.3 |
| 20260508212859 | 75 | 127 | 3.0 | 5.0 | 0.00 | 0.00 | 0.00 | 89 | 1010.3 |
| 20260508212402 | 75 | 110 | 3.0 | 5.0 | 0.00 | 0.00 | 0.00 | 89 | 1010.3 |
| 20260508211845 | 75 | 151 | 3.0 | 6.0 | 0.00 | 0.00 | 0.00 | 89 | 1010.2 |
| 20260508211328 | 75 | 134 | 4.0 | 7.0 | 0.00 | 0.00 | 0.00 | 88 | 1010.2 |
| 20260508210836 | 75 | 126 | 5.0 | 7.0 | 0.00 | 0.00 | 0.00 | 88 | 1010.2 |
| 20260508210340 | 75 | 135 | 3.0 | 9.0 | 0.00 | 0.00 | 0.00 | 88 | 1010.2 |
| 20260508205822 | 75 | 133 | 6.0 | 9.0 | 0.00 | 0.00 | 0.00 | 88 | 1010.2 |
| 20260508205347 | 75 | 126 | 2.0 | 6.0 | 0.00 | 0.00 | 0.00 | 88 | 1010.2 |
| 20260508204830 | 75 | 125 | 3.0 | 7.0 | 0.00 | 0.00 | 0.00 | 87 | 1010.4 |
| 20260508204337 | 75 | 80 | 2.0 | 9.0 | 0.00 | 0.00 | 0.00 | 88 | 1010.4 |
| 20260508203840 | 75 | 131 | 6.0 | 9.0 | 0.00 | 0.00 | 0.00 | 87 | 1010.4 |
| 20260508203343 | 75 | 131 | 3.0 | 10.0 | 0.00 | 0.00 | 0.00 | 87 | 1010.2 |
| 20260508202830 | 76 | 111 | 6.0 | 10.0 | 0.00 | 0.00 | 0.00 | 87 | 1010.2 |
| 20260508202336 | 76 | 132 | 5.0 | 9.0 | 0.00 | 0.00 | 0.00 | 86 | 1010.2 |
| 20260508201824 | 76 | 120 | 2.0 | 9.0 | 0.00 | 0.00 | 0.00 | 85 | 1010.7 |
| 20260508201328 | 77 | 113 | 2.0 | 5.0 | 0.00 | 0.00 | 0.00 | 84 | 1010.7 |
| 20260508200831 | 77 | 82 | 0.0 | 6.0 | 0.00 | 0.00 | 0.00 | 84 | 1010.7 |
| 20260508200342 | 77 | 85 | 1.0 | 9.0 | 0.00 | 0.00 | 0.00 | 85 | 1010.7 |
| 20260508195844 | 76 | 98 | 3.0 | 9.0 | 0.00 | 0.00 | 0.00 | 85 | 1010.7 |
| 20260508195327 | 76 | 20 | 2.0 | 6.0 | 0.00 | 0.00 | 0.00 | 85 | 1010.7 |
| 20260508194831 | 76 | 40 | 2.0 | 5.0 | 0.00 | 0.00 | 0.00 | 85 | 1010.9 |